Location: ???????
(54.6339°N, 39.4245°E)
Time: 13:59:47
(UTC+00:00)

Okean-O - Pass Details

Date: 19 May 2025
Orbit: 628 x 631 km, 98.0° (Epoch: 20 June)

Event Time Altitude Azimuth Distance (km) Brightness Sun altitude
Exits shadow 18:26:22 - 183° (S) 2,941 5.6 -6.8°
Rises 18:26:26 0° 183° (S) 2,915 5.6 -6.8°
Reaches altitude 10° 18:28:43 10° 190° (S) 2,012 4.8 -7.1°
Maximum altitude 18:32:53 42° 262° (W) 910 3.7 -7.4°
Drops below altitude 10° 18:37:05 10° 334° (NNW) 2,026 6.8 -7.8°
Sets 18:39:23 0° 341° (NNW) 2,939 7.7 -8.0°
